Regional Weather Roundup
Issued by NWS

Home | Current Version | Previous Version | Text Only | Print | Product List | Glossary On
Versions: 1 2 3 4 5 6 7 8 9 10 11 12 13 14 15 16 17 18 19 20 21 22 23 24 25 26 27 28 29 30 31 32 33 34 35 36 37 38 39 40 41 42 43 44 45 46 47 48 49 50
000
ASUS43 KOAX 191210
RWRNE

WEATHER ROUNDUP FOR NEBRASKA
NATIONAL WEATHER SERVICE OMAHA NE
600 AM CST MON FEB 19 2018

NOTES: SATELLITE DATA IS BEING USED TO AUGMENT CLOUD COVER ABOVE
       12000 FEET.
       "FAIR" INDICATES FEW OR NO CLOUDS BELOW 12,000 FEET WITH NO
       SIGNIFICANT WEATHER AND/OR OBSTRUCTIONS TO VISIBILITY.


NEZ001>004-019>022-054>056-191300-
NEBRASKA PANHANDLE

CITY           SKY/WX    TMP DP  RH WIND       PRES   REMARKS
SCOTTSBLUFF    LGT SNOW   7   1  76 N16       29.83S WCI -11
6HR MIN TEMP:   7; 6HR MAX TEMP:  12; 6HR PCP:  0.03;

ALLIANCE       CLOUDY     5   2  87 N15       29.82S WCI -13
6HR MIN TEMP:   5; 6HR MAX TEMP:   9; 6HR PCP: TRACE;

CHADRON        LGT SNOW   3  -1  83 NE15G21   29.93F FOG     WCI -16
6HR MIN TEMP:   3; 6HR MAX TEMP:   8; 6HR PCP: TRACE;

GORDON         LGT SNOW   4  -1  77 N15G23    29.89R WCI -14
6HR MIN TEMP:   4; 6HR MAX TEMP:   9;

KIMBALL        LGT SNOW   7   4  86 N13       29.74R WCI  -9
SIDNEY         LGT SNOW   8   5  87 N16G23    29.77R FOG     WCI -10
6HR MIN TEMP:   8; 6HR MAX TEMP:  12; 6HR PCP: TRACE;

$$

NEZ057>060-069>072-079>082-191300-
SOUTHWEST NEBRASKA

CITY           SKY/WX    TMP DP  RH WIND       PRES   REMARKS
NORTH PLATTE   LGT SNOW  13   7  77 N20G25    29.82S WCI  -5
6HR MIN TEMP:  13; 6HR MAX TEMP:  20; 6HR PCP: TRACE;

IMPERIAL       FLURRIES  13   9  84 N21G28    29.79R WCI  -5
6HR MIN TEMP:  13; 6HR MAX TEMP:  20; 6HR PCP: TRACE;

LEXINGTON      FLURRIES  17  12  82 N15       29.81R WCI   2
MCCOOK         FLURRIES  16  12  84 N16       29.81R WCI   1
6HR MIN TEMP:  16; 6HR MAX TEMP:  25; 6HR PCP: TRACE;

OGALLALA       LGT SNOW  14  10  84 N13G25    29.81S WCI   0
$$

NEZ005>010-023>029-035>040-094-191300-
NORTH CENTRAL NEBRASKA

CITY           SKY/WX    TMP DP  RH WIND       PRES   REMARKS
VALENTINE      FLURRIES   9   2  73 N18       29.94R WCI -10
6HR MIN TEMP:   9; 6HR MAX TEMP:  13; 6HR PCP: TRACE;

AINSWORTH      LGT SNOW   9   6  88 N25G31    29.88F WCI -12
BROKEN BOW     FLURRIES  13   8  81 N24G35    29.80S WCI  -7
6HR MIN TEMP:  13; 6HR MAX TEMP:  21; 6HR PCP: TRACE;

O`NEILL        LGT SNOW  12   9  89 N22       29.87R WCI  -7
ORD            LGT SNOW  14  10  84 N21G36    29.81R FOG     WCI  -4
6HR MIN TEMP:  13; 6HR MAX TEMP:  22; 6HR PCP: TRACE;

THEDFORD       CLOUDY    10   7  85 N20       29.85S WCI  -8
$$

NEZ041-046>049-061>064-073>077-083>087-191300-
SOUTH CENTRAL NEBRASKA

CITY           SKY/WX    TMP DP  RH WIND       PRES   REMARKS
GRAND ISLAND   FLURRIES  17  14  88 N23G36    29.79R WCI  -1
6HR MIN TEMP:  17; 6HR MAX TEMP:  27; 6HR PCP: TRACE;

AURORA         CLOUDY    18  15  87 N22       29.77R WCI   1
HASTINGS       CLOUDY    17  14  88 N24G36    29.78R WCI  -1
6HR MIN TEMP:  17; 6HR MAX TEMP:  28; 6HR PCP: TRACE;

HEBRON         CLOUDY    24  22  92 N20G26    29.73R FOG     WCI  10
HOLDREGE       CLOUDY    17  15  92 N23G29    29.79R WCI  -1
KEARNEY        FLURRIES  15  12  88 MISG      29.80R
YORK           CLEAR     19  19 100 N24G39    29.75R WCI   2
$$

NEZ011>018-030>034-042>045-191300-
NORTHEAST NEBRASKA

CITY           SKY/WX    TMP DP  RH WIND       PRES   REMARKS
NORFOLK        FRZ RAIN  18  16  92 N18G24    29.79R WCI   2
6HR MIN TEMP:  18; 6HR MAX TEMP:  26; 6HR PCP: TRACE;

ALBION         LGT SNOW  16  12  84 N18G28    29.80R WCI  -1
BLAIR          MIX PCPN  26  25  94 N18G24    29.69R WCI  13
COLUMBUS       MIX PCPN  20  18  92 N21G26    29.78R WCI   4
FREMONT        CLOUDY    24  23  94 N12G20    29.75R FOG     WCI  13
TEKAMAH        MIX PCPN  24  22  91 N26G39    29.74S FOG     WCI   8
6HR MIN TEMP:  24; 6HR MAX TEMP:  33; 6HR PCP: TRACE;

WAYNE          CLOUDY    19  18  96 N16G24    29.79S WCI   5
$$

NEZ050>053-065>068-078-088>093-191300-
SOUTHEAST NEBRASKA

CITY           SKY/WX    TMP DP  RH WIND       PRES   REMARKS
LINCOLN        FLURRIES  25  22  88 N25G35    29.74R WCI   9
6HR MIN TEMP:  25; 6HR MAX TEMP:  34; 6HR PCP:  0.01;

OMAHA EPPLEY   FRZ RAIN  29  27  92 N23G32    29.69R FOG     WCI  15
6HR MIN TEMP:  29; 6HR MAX TEMP:  35; 6HR PCP:  0.05;

BEATRICE       CLOUDY    29  27  94 N26       29.71R FOG     WCI  14
FALLS CITY     CLOUDY    38  38 100 NW18      29.60R FOG     WCI  28
6HR MIN TEMP:  38; 6HR MAX TEMP:  53; 6HR PCP:  0.02;

NEBRASKA CITY  MIX PCPN  32  32 100 N17       29.64R WCI  21
PLATTSMOUTH    LGT SNOW  31  31 100 NW16      29.66R WCI  20
$$

NEZ044-045-051>053-067-191300-
OMAHA AREA

CITY           SKY/WX    TMP DP  RH WIND       PRES   REMARKS
OMAHA EPPLEY   FRZ RAIN  29  27  92 N23G32    29.69R FOG     WCI  15
6HR MIN TEMP:  29; 6HR MAX TEMP:  35; 6HR PCP:  0.05;

BLAIR          MIX PCPN  26  25  94 N18G24    29.69R WCI  13
FREMONT        CLOUDY    24  23  94 N12G20    29.75R FOG     WCI  13
MILLARD        CLOUDY    28  26  91 NW14G25   29.70R WCI  17
OFFUTT AFB     FRZ RAIN  30  29  93 N14G22    29.67R WCI  20
PLATTSMOUTH    LGT SNOW  31  31 100 NW16      29.66R WCI  20
WAHOO          CLOUDY    25  23  89 MISG      29.73R
$$



USA.gov is the U.S. government's official web portal to all federal, state and local government web resources and services.